Regional Weather Roundup
Issued by NWS

Home | Current Version | Previous Version | Graphics & Text | Print | Product List | Glossary Off
Versions: 1 2 3 4 5 6 7 8 9 10 11 12 13 14 15 16 17 18 19 20 21 22 23 24 25 26 27 28 29 30 31 32 33 34 35 36 37 38 39 40 41 42 43 44 45 46 47 48 49 50

000
ASUS43 KMKX 311400
RWRWI

WISCONSIN REGIONAL WEATHER ROUNDUP
NATIONAL WEATHER SERVICE MILWAUKEE/SULLIVAN WI
900 AM CDT THU JUL 31 2014

NOTE: "FAIR" INDICATES FEW OR NO CLOUDS BELOW 12,000 FEET WITH NO
SIGNIFICANT WEATHER AND/OR OBSTRUCTIONS TO VISIBILITY.

WIZ001-002-006>008-014>016-023>028-311500-
NORTHWEST WISCONSIN

CITY           SKY/WX    TMP DP  RH WIND       PRES   REMARKS
SUPERIOR ARPT  SUNNY     64  60  85 SW5       29.99S
ASHLAND        SUNNY     67  61  81 W7        29.99S
HAYWARD        SUNNY     63  59  87 VRB5      30.01S
SIREN          SUNNY     65  58  78 W5        30.02S
RICE LAKE      SUNNY     65  60  84 CALM      30.03S
LADYSMITH      PTSUNNY   63  60  90 NW3       30.03S
EAU CLAIRE     NOT AVBL
MENOMONIE      SUNNY     69  59  69 W7        30.03S
NEW RICHMOND   MOSUNNY   64  59  82 W5        30.04S
OSCEOLA        MOSUNNY   65  61  88 CALM      30.06S
$$

WIZ003>005-009-010-017-018-311500-
NORTH CENTRAL WISCONSIN

CITY           SKY/WX    TMP DP  RH WIND       PRES   REMARKS
WOODRUFF       SUNNY     63  59  85 W3        30.00S
RHINELANDER    SUNNY     63  57  81 W5        30.01S
EAGLE RIVER    MOSUNNY   59  59 100 W3        29.99S
LAND O LAKES   SUNNY     61  61 100 W5        30.00S
PHILLIPS       PTSUNNY   60  58  96 CALM      30.01R
TOMAHAWK       FOG       57  56  97 CALM      30.01S VSB 1/4
MEDFORD        SUNNY     62  60  91 W6        30.02S
MERRILL        MOSUNNY   60  60 100 CALM      30.00S
$$

WIZ029-030-035-036-043>047-311500-
CENTRAL WISCONSIN

CITY           SKY/WX    TMP DP  RH WIND       PRES   REMARKS
WAUSAU         MOSUNNY   65  60  84 W6        29.99S
MOSINEE        SUNNY     64  63  94 NW5       30.01S
MARSHFIELD     SUNNY     66  61  84 W9        30.01S
STEVENS POINT  SUNNY     63  58  83 W6        30.01S
WAUPACA        SUNNY     70  61  74 W5        30.00S
WAUTOMA        NOT AVBL
WISC RAPIDS    SUNNY     65  61  87 W5        30.02S
CAMP DOUGLAS   NOT AVBL
$$

WIZ011>013-019>022-031-037>040-048>050-311500-
NORTHEAST WISCONSIN

CITY           SKY/WX    TMP DP  RH WIND       PRES   REMARKS
ANTIGO         FOG       57  57 100 CALM      30.01S VSB 1/4
STURGEON BAY   SUNNY     64  57  77 W6        29.98S
GREEN BAY      SUNNY     66  62  87 CALM      29.99R
MANITOWOC      NOT AVBL
APPLETON       MOSUNNY   64  61  88 W7        30.00R
CLINTONVILLE   SUNNY     64  59  82 NW5       29.99S
OSHKOSH        SUNNY     68  61  78 NW7       30.00R
$$

WIZ032>034-041-042-053>061-311500-
SOUTHWEST WISCONSIN

CITY           SKY/WX    TMP DP  RH WIND       PRES   REMARKS
LA CROSSE      SUNNY     68  60  75 S5        30.03S
SPARTA         SUNNY     64  60  89 SW3       30.04S
VIROQUA        FAIR      65  61  89 W7        30.06R
BOSCOBEL       SUNNY     68  60  75 S6        30.05S
PRAIRIE DU CHI SUNNY     66  57  73 CALM      30.05S
PLATTEVILLE    FAIR      65  61  87 W5        30.07S
$$

WIZ056-057-062-063-064-067-068-311500-
SOUTH CENTRAL WISCONSIN

CITY           SKY/WX    TMP DP  RH WIND       PRES   REMARKS
BARABOO/DELLS  SUNNY     67  57  69 W7        30.03R
LONE ROCK      NOT AVBL
WATERTOWN      SUNNY     65  60  84 W5        30.02S
MADISON        SUNNY     71  60  68 VRB5      30.03R
MIDDLETON      FAIR      69  60  74 W3        30.04R
MONROE         SUNNY     66  59  77 W9        30.05S
JANESVILLE     SUNNY     70  57  64 W8        30.03R
$$

WIZ051-052-058>065-066-070>072-311500-
SOUTHEAST WISCONSIN

CITY           SKY/WX    TMP DP  RH WIND       PRES   REMARKS
MILWAUKEE      SUNNY     70  57  63 W7        30.01S
WAUKESHA       SUNNY     66  59  77 SW5       30.03S
MILWAUKEE/TIMM SUNNY     70  55  60 W9        30.02S
RACINE         SUNNY     69  59  70 W7        30.03S
BURLINGTON     SUNNY     64  58  81 SW5       30.02S
KENOSHA        SUNNY     69  61  75 W6        30.02F
FOND DU LAC    SUNNY     68  60  75 W5        30.01R
SHEBOYGAN      SUNNY     67  61  81 W6        30.00R
WEST BEND      SUNNY     66  55  68 W8        30.01S
JUNEAU         SUNNY     64  58  79 SW5       30.03S
$$

LSZ147-162-311500-
LAKE SUPERIOR

STATION/POSITION TIME  TEMP    WIND        PRES    WAVE
                       AIR SEA DIR/SP/G            HT/PER
                 (UTC) (F)     (DEG/KT/KT) (MB)    (FT/S)
W MID LAKE BUOY  1250   49 41  280/  8/  8 1014.3R   0
PORT WING        1300   62     190/  4/  6 1015.6R
SAXON HARBOR     1300           CALM  /  6 1014.9R
$$

LMZ867-665-643>646-311500-
LAKE MICHIGAN

STATION/POSITION TIME  TEMP    WIND        PRES    WAVE
                       AIR SEA DIR/SP/G            HT/PER
                 (UTC) (F)     (DEG/KT/KT) (MB)    (FT/S)
N MID LAKE BUOY  1250   56 52  230/  4/  6 1013.8S   1
NORTHPORT PIER   1300   63     330/  4/  7 1014.2S
SISTER BAY       1210   64     330/  7/  7   N/A
KEWAUNEE LAKESHO 1300   61     290/  4/  7 1014.2S
SHEBOYGAN LAKESH 1300   65     270/  6/  8 1015.7R
PORT WASHINGTON  1340   71     270/  4/  6 1016.6R
ATWATER BUOY     1300   66     250/  8     1017.0R
MILWAUKEE LAKESH 1300   67     280/  7/  8   N/A
S MID LAKE BUOY  1250   62 60  240/ 10/ 10 1016.1R   1/ 3
KENOSHA   LAKESH 1300   67     260/ 11/ 12 1016.3S
$$

TC  - TEMPERATURE IN CELSIUS
VSB - VISIBILITY IN STATUTE MILES
WCI - WIND CHILL INDEX
HX  - HEAT INDEX



USA.gov is the U.S. government's official web portal to all federal, state and local government web resources and services.